Tracking 31027 objects as of 19-Jul-2025
HD Live streaming from Space Station
objects crossing your sky now

DELTA 1 R/B

Track DELTA 1 R/B now!
10-day predictions


NORAD ID: 515
Int'l Code: 1962-068B
Perigee: 1,331.2 km
Apogee: 7,420.4 km
Inclination: 47.5 °
Period: 184.8 minutes
Semi major axis: 10746 km
RCS: 0.4654 m2 (medium)
Launch date: December 13, 1962
Source: United States (US)
Launch site: AIR FORCE EASTERN TEST RANGE (AFETR)

Note: This is a ROCKET BODY
Your satellite tracking list
SL-12 R/B(2)
Track 1 satellite(s)




NASA's NSSDC Master Catalog

Two Line Element Set (TLE):
1 00515U 62068B   25199.30425422 -.00000015  00000-0  00000-0 0  9998
2 00515  47.5219  65.8140 2833034 233.4769  97.0639  7.79261129781826
Source of the keplerian elements: AFSPC